Nebraska City, NE

10:44 PM CDT on April 24, 2017 (GMT -0500)
Nebraska City Municipal

Weather History for KAFK - February, 2013

Change the Weather History Date:

Thursday, February 14, 2013

  Actual Average (KSDA) Record (KSDA)
Temperature  
Mean Temperature 36 °F -  
Max Temperature 46 °F 38 °F 73 °F (1967)
Min Temperature 27 °F 20 °F -5 °F (1951)
Degree Days  
Heating Degree Days 28    
Moisture  
Dew Point 26 °F    
Average Humidity 61    
Maximum Humidity 96    
Minimum Humidity 35    
Precipitation  
Precipitation 0.00 in - - ()
Sea Level Pressure  
Sea Level Pressure 30.00 in    
Wind  
Wind Speed 12 mph (NW)    
Max Wind Speed 25 mph    
Max Gust Speed 33 mph    
Visibility 10 miles    
Events Snow    
Averages and records for this station are not official NWS values.
T = Trace of Precipitation, MM = Missing Value Source: NWS Daily Summary

Daily Weather History Graph

Daily Weather History Graph

Search for Another Location

Airport or City:

Trip Planner

Search our weather history database for the weather conditions in past years. The results will help you decide how hot, cold, wet, or windy it might be!

Date:

Astronomy

Feb. 14, 2013 Rise Set
Actual Time 7:18 AM CST 5:57 PM CST
Civil Twilight 6:50 AM CST 6:25 PM CST
Nautical Twilight 6:18 AM CST 6:57 PM CST
Astronomical Twilight 5:46 AM CST 7:29 PM CST
Moon 9:19 AM CST (2/14) 11:03 PM CST (2/14)
Length of Visible Light 11h 35m
Length of Day
10h 39m
Waxing Crescent, 22% of the Moon is Illuminated
Feb 14
Waxing Crescent
Feb 17
First Quarter
Feb 25
Full
Mar 4
Last Quarter
Mar 11
New

Hourly Weather History & Observations

Time (CST) Temp. Windchill Dew Point Humidity Pressure Visibility Wind Dir Wind Speed Gust Speed Precip Events Conditions
12:15 AM 40.8 °F 33.7 °F 28.2 °F 61% 29.80 in 10.0 mi West 12.7 mph - N/A   Overcast
12:35 AM 40.5 °F 33.6 °F 28.4 °F 62% 29.80 in 10.0 mi West 11.5 mph - N/A   Overcast
12:55 AM 41.2 °F 33.7 °F 28.4 °F 60% 29.81 in 10.0 mi WNW 13.8 mph - N/A   Overcast
1:15 AM 41.4 °F 33.3 °F 28.8 °F 61% 29.81 in 10.0 mi NW 16.1 mph 19.6 mph N/A   Overcast
1:35 AM 41.9 °F 34.6 °F 29.3 °F 61% 29.82 in 10.0 mi NW 13.8 mph - N/A   Overcast
1:55 AM 42.3 °F 35.1 °F 29.3 °F 60% 29.83 in 10.0 mi NW 13.8 mph 17.3 mph N/A   Overcast
2:15 AM 41.9 °F 35.0 °F 29.3 °F 61% 29.83 in 10.0 mi NW 12.7 mph - N/A   Mostly Cloudy
2:35 AM 41.0 °F 33.1 °F 29.3 °F 63% 29.84 in 10.0 mi NW 15.0 mph 20.7 mph N/A   Scattered Clouds
2:55 AM 40.1 °F 32.4 °F 29.3 °F 65% 29.85 in 10.0 mi NW 13.8 mph - N/A   Scattered Clouds
3:15 AM 39.0 °F 31.4 °F 29.3 °F 68% 29.85 in 10.0 mi WNW 12.7 mph 17.3 mph N/A   Clear
3:35 AM 38.3 °F 29.7 °F 29.1 °F 70% 29.86 in 10.0 mi WNW 15.0 mph - N/A   Clear
3:55 AM 37.6 °F 31.0 °F 28.9 °F 71% 29.85 in 10.0 mi NW 9.2 mph - N/A   Clear
4:15 AM 34.7 °F - 28.2 °F 77% 29.86 in 10.0 mi Calm Calm - N/A   Clear
4:35 AM 36.5 °F 27.8 °F 29.1 °F 75% 29.87 in 10.0 mi NW 13.8 mph - N/A   Clear
4:55 AM 36.7 °F 28.9 °F 29.1 °F 74% 29.87 in 10.0 mi NW 11.5 mph - N/A   Clear
5:15 AM 36.3 °F 28.4 °F 28.9 °F 75% 29.89 in 10.0 mi WNW 11.5 mph - N/A   Clear
5:35 AM 35.1 °F - 28.6 °F 77% 29.90 in 10.0 mi Calm Calm - N/A   Clear
5:55 AM 34.3 °F - 28.4 °F 79% 29.91 in 10.0 mi Calm Calm - N/A   Clear
6:15 AM 33.4 °F - 28.2 °F 81% 29.92 in 10.0 mi Calm Calm - N/A   Clear
6:35 AM 33.3 °F - 28.4 °F 82% 29.93 in 10.0 mi Calm Calm - N/A   Clear
6:55 AM 34.0 °F 26.0 °F 28.8 °F 81% 29.94 in 10.0 mi NW 10.4 mph - N/A   Clear
7:15 AM 33.6 °F 26.2 °F 28.8 °F 82% 29.95 in 10.0 mi WNW 9.2 mph - N/A   Clear
7:35 AM 32.5 °F 28.1 °F 28.4 °F 85% 29.95 in 10.0 mi NW 4.6 mph - N/A   Clear
7:55 AM 34.0 °F - 29.7 °F 84% 29.96 in 10.0 mi Calm Calm - N/A   Clear
8:15 AM 35.6 °F - 30.2 °F 81% 29.96 in 10.0 mi Calm Calm - N/A   Clear
8:35 AM 36.1 °F 28.7 °F 30.4 °F 80% 29.97 in 10.0 mi NW 10.4 mph - N/A   Clear
8:55 AM 37.0 °F - 30.7 °F 78% 29.98 in 10.0 mi Calm Calm - N/A   Clear
9:15 AM 38.5 °F 31.1 °F 30.9 °F 74% 29.99 in 10.0 mi WNW 11.5 mph - N/A   Clear
9:35 AM 39.6 °F 34.0 °F 30.7 °F 71% 29.98 in 10.0 mi NW 8.1 mph - N/A   Clear
9:55 AM 41.2 °F - 31.1 °F 67% 29.98 in 10.0 mi Calm Calm - N/A   Clear
10:15 AM 42.6 °F 36.3 °F 31.5 °F 65% 29.99 in 10.0 mi WNW 11.5 mph - N/A   Clear
10:35 AM 43.2 °F 39.7 °F 31.1 °F 62% 29.99 in 10.0 mi NW 5.8 mph - N/A   Scattered Clouds
10:55 AM 44.1 °F 37.4 °F 30.7 °F 59% 30.00 in 10.0 mi NW 13.8 mph 20.7 mph N/A   Scattered Clouds
11:15 AM 45.0 °F 38.2 °F 30.6 °F 57% 30.00 in 10.0 mi NW 15.0 mph 20.7 mph N/A   Mostly Cloudy
11:35 AM 45.5 °F 38.3 °F 29.8 °F 54% 30.01 in 10.0 mi NW 17.3 mph 25.3 mph N/A   Mostly Cloudy
11:55 AM 44.6 °F 38.1 °F 28.9 °F 54% 30.02 in 10.0 mi NW 13.8 mph 21.9 mph N/A   Mostly Cloudy
12:15 PM 45.3 °F 38.1 °F 27.7 °F 50% 30.01 in 10.0 mi NNW 17.3 mph 24.2 mph N/A   Mostly Cloudy
12:35 PM 45.5 °F 37.6 °F 25.9 °F 46% 30.02 in 10.0 mi NW 20.7 mph - N/A   Scattered Clouds
12:55 PM 45.1 °F 37.3 °F 21.7 °F 40% 30.02 in 10.0 mi NW 19.6 mph - N/A   Scattered Clouds
1:15 PM 46.4 °F 39.5 °F 22.1 °F 38% 30.02 in 10.0 mi WNW 17.3 mph 26.5 mph N/A   Scattered Clouds
1:35 PM 45.0 °F 37.4 °F 23.0 °F 42% 30.01 in 10.0 mi NW 18.4 mph 27.6 mph N/A   Scattered Clouds
1:55 PM 45.3 °F 36.5 °F 22.5 °F 40% 30.01 in 10.0 mi WNW 25.3 mph 32.2 mph N/A   Scattered Clouds
2:15 PM 45.5 °F 38.3 °F 21.4 °F 38% 30.02 in 10.0 mi NW 17.3 mph 28.8 mph N/A   Mostly Cloudy
2:35 PM 45.1 °F 36.6 °F 20.7 °F 38% 30.02 in 10.0 mi NW 23.0 mph 32.2 mph N/A   Overcast
2:55 PM 45.0 °F 36.4 °F 18.9 °F 35% 30.03 in 10.0 mi NW 23.0 mph 33.4 mph N/A   Scattered Clouds
3:15 PM 44.8 °F 36.4 °F 19.4 °F 36% 30.04 in 10.0 mi NNW 21.9 mph 27.6 mph N/A   Scattered Clouds
3:35 PM 44.6 °F 36.6 °F 19.9 °F 37% 30.04 in 10.0 mi NW 19.6 mph 24.2 mph N/A   Mostly Cloudy
3:55 PM 44.6 °F 37.2 °F 19.6 °F 37% 30.05 in 10.0 mi NW 17.3 mph 24.2 mph N/A   Scattered Clouds
4:15 PM 44.6 °F 37.2 °F 18.1 °F 35% 30.05 in 10.0 mi NW 17.3 mph 24.2 mph N/A   Scattered Clouds
4:35 PM 43.9 °F 36.2 °F 17.6 °F 35% 30.05 in 10.0 mi NW 17.3 mph 25.3 mph N/A   Scattered Clouds
4:55 PM 43.2 °F 35.9 °F 18.9 °F 38% 30.06 in 10.0 mi NW 15.0 mph - N/A   Scattered Clouds
5:15 PM 42.4 °F 34.4 °F 18.5 °F 38% 30.08 in 10.0 mi NW 17.3 mph 21.9 mph N/A   Mostly Cloudy
5:35 PM 41.7 °F 33.4 °F 18.3 °F 39% 30.07 in 10.0 mi NW 17.3 mph - N/A   Scattered Clouds
5:55 PM 40.3 °F 32.2 °F 19.0 °F 43% 30.08 in 10.0 mi NW 15.0 mph 20.7 mph N/A   Scattered Clouds
6:15 PM 39.2 °F 31.6 °F 19.0 °F 44% 30.08 in 10.0 mi NW 12.7 mph 19.6 mph N/A   Clear
6:35 PM 37.8 °F 30.7 °F 19.9 °F 49% 30.09 in 10.0 mi NW 10.4 mph 16.1 mph N/A   Clear
6:55 PM 38.5 °F 29.9 °F 21.2 °F 50% 30.10 in 10.0 mi NNW 15.0 mph 19.6 mph N/A   Mostly Cloudy
7:15 PM 38.3 °F 30.1 °F 21.9 °F 52% 30.11 in 10.0 mi NW 13.8 mph 18.4 mph N/A   Overcast
7:35 PM 37.9 °F 28.9 °F 24.4 °F 58% 30.11 in 10.0 mi NW 16.1 mph 21.9 mph N/A   Overcast
7:55 PM 36.5 °F 27.8 °F 27.3 °F 69% 30.12 in 10.0 mi NNW 13.8 mph - N/A   Overcast
8:15 PM 35.6 °F 26.6 °F 26.6 °F 70% 30.12 in 10.0 mi NW 13.8 mph - N/A   Mostly Cloudy
8:35 PM 35.4 °F 28.4 °F 27.5 °F 73% 30.13 in 10.0 mi NW 9.2 mph - N/A   Overcast
8:55 PM 34.7 °F 26.9 °F 29.3 °F 81% 30.14 in 10.0 mi NNW 10.4 mph - N/A Snow Light Snow
9:15 PM 34.7 °F - 29.7 °F 82% 30.14 in 10.0 mi Calm Calm - N/A Snow Light Snow
9:35 PM 32.9 °F 19.8 °F 32.0 °F 96% 30.15 in 1.0 mi North 25.3 mph 28.8 mph N/A Snow Light Snow
9:55 PM 30.2 °F 18.1 °F 27.0 °F 88% 30.18 in 7.0 mi North 18.4 mph 29.9 mph N/A Snow Light Snow
10:15 PM 30.0 °F 16.0 °F 24.3 °F 79% 30.19 in 10.0 mi North 25.3 mph 31.1 mph N/A Snow Light Snow
10:35 PM 29.8 °F 18.0 °F 19.9 °F 67% 30.21 in 10.0 mi North 17.3 mph 26.5 mph N/A   Overcast
10:55 PM 29.1 °F 16.0 °F 16.5 °F 59% 30.22 in 10.0 mi North 20.7 mph 28.8 mph N/A   Overcast
11:15 PM 28.4 °F 15.4 °F 16.2 °F 60% 30.23 in 10.0 mi North 19.6 mph 24.2 mph N/A   Overcast
11:35 PM 27.9 °F 15.5 °F 13.1 °F 54% 30.24 in 10.0 mi North 17.3 mph - N/A   Overcast
11:55 PM 27.1 °F 13.1 °F 17.1 °F 66% 30.25 in 10.0 mi NNW 21.9 mph 26.5 mph N/A   Overcast